Slocum OMG-3 on mission Ridgemix Piloting

  • Public vehicle
  • Serial Number unit_424
  • Operated by NOC

  • Deployed: 2016/05/26 00:00:00 UTC (1265 days ago) by Alvaro Lorenzo
  • Recovered: 2016/06/25 15:00:00 UTC (1235 days ago) by scaw
  • Time at Sea: 30 days
  • Profiles Performed: 2657

Near Real-Time Data

 
Potential Salinity Section
Potential Temperature Section (Celcius)
Temperature profile

Communication Log

# Updated Depth Speed Plots
1030100 2016-06-25 14:56:30 UTC (1235 days ago)
1030098 2016-06-25 14:53:32 UTC (1235 days ago)
1030096 2016-06-25 14:47:24 UTC (1235 days ago)
1030094 2016-06-25 14:40:31 UTC (1235 days ago)
1030091 2016-06-25 14:33:35 UTC (1235 days ago)
1030081 2016-06-25 14:26:46 UTC (1235 days ago)
1030079 2016-06-25 14:21:35 UTC (1235 days ago)
1030078 2016-06-25 14:20:02 UTC (1235 days ago)
1030076 2016-06-25 14:13:55 UTC (1235 days ago)
1030074 2016-06-25 14:06:47 UTC (1235 days ago)
1040014 2016-06-25 13:55:14 UTC (1235 days ago)
1030070 2016-06-25 13:54:19 UTC (1235 days ago)
1030068 2016-06-25 13:48:10 UTC (1235 days ago)
1030066 2016-06-25 13:42:00 UTC (1235 days ago)
1030064 2016-06-25 13:35:45 UTC (1235 days ago)
1030062 2016-06-25 13:29:41 UTC (1235 days ago)
1030059 2016-06-25 13:23:31 UTC (1235 days ago)
1030042 2016-06-25 13:17:27 UTC (1235 days ago)
1040013 2016-06-25 13:12:28 UTC (1235 days ago)
1030039 2016-06-25 13:11:22 UTC (1235 days ago)